Lapse_Rate
-0.7 0.9 -1.2 2.1 6.3 6.5 6.5 6.5 6.5 6.5 6.5 6.3 6.8 6.8 6.5 6.5 6.5 6.5 5.5 3.8 3.0 3.5 3.3 3.4 3.8 4.1 4.4 4.6 4.7 4.4 4.2 4.2 4.2 4.1 4.1 4.0 3.9 3.7 3.4 3.5 3.8 4.1 4.4 4.4 4.4 4.2 3.9 3.8 3.9
-0.1 1.9 1.6 2.5 6.5 6.5 6.5 6.5 6.5 6.5 6.3 6.3 6.1 6.8 6.9 6.5 6.7 5.8 4.6 4.1 3.2 3.4 3.1 3.1 3.3 3.5 3.9 4.4 4.1 4.2 4.5 4.3 4.0 3.9 3.9 3.9 3.6 3.3 3.2 3.3 3.6 4.2 4.7 4.7 4.5 4.2 3.7 3.2 3.0
1.8 2.4 3.0 6.5 6.5 6.5 6.5 6.5 6.5 6.4 6.4 5.9 5.7 6.3 7.2 7.0 6.3 6.0 4.4 3.8 2.8 2.7 2.5 2.8 3.1 3.3 3.3 3.1 3.1 3.0 3.1 3.7 3.7 3.8 3.9 3.9 3.8 3.5 3.4 3.3 3.6 3.8 4.0 4.2 4.3 4.0 3.7 3.3 3.1
2.7 2.4 2.1 6.5 6.5 6.5 6.5 6.5 6.4 6.5 6.3 6.5 6.5 6.5 6.7 8.0 6.4 4.8 3.9 2.9 2.4 2.4 2.5 2.7 3.0 3.0 3.1 2.9 2.8 3.1 3.1 3.1 3.3 3.4 3.7 3.6 3.4 3.3 2.9 3.0 3.1 3.5 3.7 3.7 3.7 3.7 3.7 3.6 3.7
1.3 1.7 6.5 6.5 6.5 6.5 6.5 6.3 6.5 6.5 6.6 6.9 6.9 6.6 7.1 5.4 4.9 4.4 3.8 2.6 1.9 2.9 3.0 2.9 3.2 3.2 3.0 3.1 2.9 2.8 2.4 2.2 2.5 2.5 2.8 3.1 3.0 2.8 3.1 3.3 3.5 3.9 4.0 3.8 3.7 3.7 3.9 4.0 3.8
3.2 2.3 6.5 6.5 6.5 6.5 6.3 6.1 6.8 6.8 6.9 7.1 6.8 6.8 7.1 6.9 4.0 4.6 3.5 2.2 2.1 2.5 2.8 3.1 2.7 2.4 2.4 2.7 2.0 2.6 2.5 2.3 2.8 3.2 2.9 3.0 3.4 3.3 3.5 3.9 3.9 4.0 4.0 4.3 4.1 4.1 4.1 4.2 4.1
5.2 6.5 6.5 6.5 6.5 6.5 6.5 6.3 6.5 6.7 6.6 6.7 7.2 6.6 7.0 6.2 4.9 4.0 3.4 2.5 1.9 2.4 2.7 2.6 2.5 2.1 1.5 1.6 2.1 2.3 2.5 2.3 2.5 3.4 3.4 3.4 3.7 2.8 3.0 3.7 3.9 4.1 3.9 4.2 4.5 4.4 4.5 4.7 5.0
1.9 5.8 6.5 6.5 6.5 6.5 6.3 6.8 7.1 6.7 6.5 7.5 6.0 6.6 6.7 6.8 5.1 4.4 3.9 3.4 2.6 3.0 2.6 2.3 2.3 2.1 2.1 2.2 2.6 2.2 2.3 2.2 2.2 2.7 2.6 3.6 3.7 2.7 3.4 4.6 4.4 4.8 4.7 4.9 5.3 5.3 5.4 5.5 5.6
3.7 6.5 6.5 6.5 6.5 6.5 6.0 6.5 6.3 6.0 6.4 6.5 6.9 7.4 6.6 6.0 5.3 4.0 4.5 5.7 5.5 4.6 3.7 3.0 2.7 2.9 2.5 2.3 2.4 2.3 2.4 2.4 2.5 2.6 2.7 3.0 3.0 3.1 4.1 4.2 4.6 4.7 4.7 4.8 4.9 5.2 5.3 5.5 5.7
4.4 6.5 6.5 6.4 6.4 6.5 6.5 6.6 6.9 6.7 6.8 6.8 6.0 6.1 6.2 6.0 5.8 4.4 5.4 5.3 4.7 4.3 3.9 3.3 2.8 1.8 2.3 2.5 2.2 2.0 1.6 2.1 2.5 2.5 2.6 2.6 2.6 3.1 3.9 4.1 3.9 4.0 3.8 3.9 3.7 3.9 4.4 5.0 5.2
5.9 6.5 6.5 6.2 5.4 6.0 5.8 6.3 6.8 6.7 6.5 6.6 6.5 5.8 6.1 6.2 5.2 5.3 4.9 4.5 4.3 4.0 3.0 2.8 2.1 1.9 2.0 1.6 2.0 1.6 1.8 2.3 2.6 2.5 2.8 3.0 2.9 3.2 3.4 3.3 2.9 2.7 2.5 2.5 3.0 3.3 3.7 4.6 5.3
6.4 5.7 6.1 5.4 5.6 5.8 6.2 5.8 6.1 5.9 6.7 6.4 6.5 6.5 6.9 5.5 4.5 4.2 4.3 4.0 3.9 3.5 3.0 2.5 1.3 1.5 1.9 2.0 1.6 1.7 2.3 2.6 2.5 2.6 3.1 2.3 2.0 2.3 2.1 1.9 2.4 2.1 2.1 2.2 2.3 2.9 4.2 4.9 5.3
6.5 6.1 4.6 4.9 5.2 5.9 5.8 5.8 6.2 6.6 7.6 7.7 7.3 6.9 4.9 3.3 3.2 4.5 4.1 3.8 3.5 3.0 1.9 1.6 1.5 1.8 2.2 2.2 2.1 2.7 2.5 2.4 2.4 2.3 2.9 3.0 2.2 1.9 2.1 1.9 2.0 2.0 2.4 2.1 2.4 2.5 2.6 3.7 4.2
5.3 5.4 4.3 5.6 6.1 6.5 6.6 6.0 6.1 6.3 6.8 6.9 5.9 4.5 3.2 2.4 2.8 4.5 4.5 3.9 4.3 3.1 2.2 2.0 2.3 2.7 3.6 2.5 2.8 2.5 2.9 2.3 2.1 2.0 2.7 3.3 3.5 2.5 2.0 1.8 1.9 2.1 2.8 2.8 2.7 2.0 2.2 2.6 3.5
5.5 6.5 6.4 5.6 5.4 6.4 5.8 6.5 6.5 5.6 6.7 6.5 5.8 5.1 3.6 3.0 3.6 4.9 3.9 4.9 3.9 2.1 2.3 3.5 2.5 4.0 3.8 3.3 3.1 2.8 3.2 2.8 2.2 2.3 3.4 3.5 3.6 3.0 2.5 2.1 1.5 1.7 2.4 2.5 2.1 2.1 2.4 2.2 2.9
6.5 6.5 6.5 6.5 5.7 5.7 6.2 6.5 6.4 5.5 5.9 6.0 5.5 4.2 3.6 3.9 3.8 4.0 3.1 2.8 2.4 1.8 2.5 3.1 4.4 3.4 3.0 2.9 2.7 2.6 3.1 3.2 2.9 2.7 2.6 3.3 3.6 3.5 2.4 1.2 1.1 2.0 1.8 1.2 0.8 0.2 0.1 0.0 0.1
6.5 6.5 6.5 6.5 5.0 6.5 6.5 6.5 5.9 5.4 5.4 6.1 6.0 5.6 4.0 4.2 4.3 4.3 2.9 2.7 2.3 1.9 2.3 2.6 1.9 2.1 2.1 2.4 2.7 2.7 2.9 2.5 2.6 2.7 2.6 2.9 3.0 3.0 1.8 1.1 1.2 1.8 0.8 0.1 -0.1 -0.8 -0.8 -0.3 0.0
6.5 6.5 6.5 6.5 6.5 6.5 6.5 6.5 6.3 5.3 4.8 5.4 5.0 5.2 4.4 4.1 4.1 4.3 3.1 3.2 2.7 2.3 2.4 1.8 1.8 1.6 2.3 2.4 2.5 1.8 1.9 1.7 2.3 2.3 2.6 3.2 3.1 2.9 1.9 1.2 1.4 1.6 0.3 -0.3 -0.3 -0.9 0.0 -0.3 0.7
6.5 6.5 6.5 6.5 6.5 6.5 6.5 6.5 6.5 5.1 5.0 5.1 5.7 5.5 5.6 5.7 5.7 5.4 3.7 3.8 2.6 2.0 2.5 1.9 2.0 2.2 2.4 1.9 1.3 1.2 0.8 0.9 1.2 2.3 3.2 3.2 3.2 2.7 1.8 1.0 1.2 1.2 -0.5 -0.6 0.2 -0.8 -0.9 0.5 0.3
6.5 6.5 6.5 6.5 6.5 6.5 6.5 6.5 6.5 6.1 6.1 5.2 5.5 6.3 6.4 6.6 7.1 5.7 4.6 3.9 3.3 2.4 2.5 1.9 1.9 2.0 2.4 1.8 1.4 1.4 1.2 1.3 1.8 2.5 3.0 3.4 3.0 2.6 1.7 1.4 0.6 0.9 0.1 -0.3 -0.5 -1.0 -0.6 -0.7 -1.0
6.5 6.5 6.5 6.5 6.5 6.5 6.5 6.5 6.5 6.4 5.8 5.0 4.8 5.4 5.9 6.4 6.8 5.8 5.1 3.2 2.0 2.1 1.9 2.1 2.1 2.2 2.3 2.6 2.2 2.1 2.2 1.9 1.1 1.3 1.4 2.5 2.9 2.7 2.1 1.8 1.5 1.0 0.8 -0.6 -0.6 -0.4 0.1 -0.0 -0.1
6.5 6.5 6.5 6.5 6.5 6.5 6.5 6.5 6.5 6.5 6.5 6.4 6.4 6.1 6.1 5.6 6.9 5.5 4.9 3.2 2.3 1.9 1.8 2.0 2.5 2.1 2.5 2.8 3.0 2.5 1.7 2.0 1.8 1.3 1.2 1.5 2.6 2.6 2.5 1.9 1.7 1.1 0.8 -0.2 0.6 0.9 0.1 0.8 0.6
6.5 6.5 6.5 6.5 6.5 6.5 6.5 6.5 6.5 6.5 6.5 6.5 6.5 6.8 6.6 5.6 6.3 5.1 4.1 3.3 2.5 1.8 2.2 2.2 2.2 2.2 3.0 3.0 3.6 2.6 1.9 2.0 1.8 1.0 0.8 0.8 1.5 2.2 2.5 2.1 1.7 1.3 1.1 0.7 0.8 0.4 0.3 0.5 0.9
6.5 6.5 6.5 6.5 6.5 6.5 6.5 6.5 6.5 6.5 6.5 6.5 6.6 6.7 6.6 5.0 6.5 4.9 4.0 3.6 2.7 2.3 1.7 1.8 2.0 3.1 3.7 3.2 2.5 2.6 2.3 1.7 1.7 0.7 0.3 -0.1 0.0 1.2 1.9 1.8 1.5 1.5 1.5 1.1 0.7 1.2 1.4 0.8 1.1
6.5 6.5 6.5 6.5 6.5 6.5 6.5 6.5 6.5 6.5 6.5 6.5 6.5 6.6 6.6 5.1 5.9 5.0 4.0 3.9 3.3 2.6 2.6 2.4 2.5 4.0 3.3 3.2 2.7 2.4 2.6 3.0 2.3 1.1 0.3 -0.4 -0.4 -0.3 0.2 1.3 1.0 1.2 1.8 1.9 1.8 1.6 1.7 1.7 1.6
6.5 6.5 6.5 6.5 6.5 6.5 6.5 6.5 6.5 6.5 6.2 6.3 6.8 6.8 6.4 5.6 5.6 4.9 4.0 3.9 3.3 3.3 2.9 3.3 3.4 3.8 3.0 3.1 2.8 2.5 2.5 2.8 2.2 1.3 0.3 -0.6 -0.4 -0.3 1.2 1.1 1.4 1.7 2.4 2.2 2.1 2.0 1.9 2.3 1.4
6.5 6.5 6.5 6.5 6.5 6.5 6.5 6.5 6.5 6.5 6.5 6.3 6.5 7.0 6.4 6.2 5.4 5.3 4.3 4.0 3.5 3.3 3.0 2.8 3.1 3.9 3.2 3.1 2.5 2.2 1.9 1.6 1.2 0.3 0.8 0.1 0.1 0.9 1.3 1.3 1.1 1.6 2.2 2.7 2.3 1.6 1.7 2.6 2.4
6.5 6.5 6.5 6.5 6.5 6.5 6.5 6.5 6.5 6.5 6.5 6.5 6.4 6.5 6.5 6.4 5.6 5.6 4.4 4.0 3.3 3.1 2.7 2.5 3.0 3.2 3.1 2.7 2.5 2.3 1.4 1.0 1.2 1.2 -0.5 -0.9 -0.1 1.2 0.5 0.6 1.3 1.5 1.7 2.4 2.5 1.7 2.5 2.4 2.6
6.5 6.5 6.5 6.5 6.5 6.5 6.5 6.5 6.5 6.5 6.5 6.5 6.3 6.4 6.1 5.9 5.1 5.2 4.5 3.9 2.9 2.8 2.5 2.4 2.4 2.6 2.3 2.4 1.7 0.9 0.6 0.5 0.2 0.6 -0.9 -0.2 -0.3 0.2 -0.0 0.6 1.1 1.1 1.1 2.0 2.0 2.2 2.7 2.8 3.1
6.5 6.5 6.5 6.5 6.5 6.5 6.5 6.5 6.5 6.5 6.2 6.0 6.2 6.4 5.9 5.0 4.7 4.8 4.2 3.6 2.8 2.5 2.5 2.7 2.3 2.2 1.9 1.4 1.5 0.9 0.4 0.4 -0.2 -0.1 -0.5 0.2 -0.2 0.5 0.9 1.4 1.5 1.4 1.5 2.1 2.1 2.7 2.2 2.8 3.1
Wind_Speed
11 19 1 3 4 5 2 4 7 13 8 3 11 10 6 2 6 4 4 10 11 10 13 17 21 21 21 21 20 21 21 21 22 21 21 21 20 20 21 20 19 18 18 17 16 16 15 15 15
7 6 4 2 5 5 3 1 5 5 13 12 12 10 6 9 9 12 5 8 11 13 15 17 22 23 24 23 22 20 19 20 22 23 23 22 21 21 21 21 21 19 17 16 16 16 17 17 17
4 1 3 4 3 2 5 7 16 9 7 3 6 1 6 8 16 8 11 13 14 13 16 18 22 23 23 23 22 24 26 24 24 24 23 20 20 20 19 19 17 17 16 15 16 16 15 15 16
3 4 4 4 3 5 1 17 19 10 5 9 12 7 6 5 5 12 16 18 15 16 16 19 21 21 23 23 23 22 23 24 22 22 21 19 19 18 18 17 17 17 17 16 16 15 16 17 18
3 3 4 4 4 3 2 18 6 11 7 8 9 9 6 9 21 19 17 17 17 16 17 18 21 20 19 19 20 20 21 23 22 21 21 18 18 18 18 17 17 18 18 18 18 17 18 20 21
4 3 5 3 5 5 4 13 14 15 14 20 15 10 6 12 21 13 13 14 19 16 17 18 20 20 19 18 20 18 20 24 21 20 22 21 18 20 21 19 18 19 19 18 16 15 15 19 21
5 3 2 5 5 4 6 1 14 19 15 8 13 10 9 12 12 14 12 12 17 16 16 15 17 21 22 21 19 20 20 22 21 18 20 22 17 21 23 20 17 18 19 18 20 24 20 18 21
4 4 6 3 1 5 6 6 6 10 5 9 17 8 13 15 14 14 13 11 12 14 14 14 15 16 16 18 18 19 19 18 17 17 14 16 17 24 21 19 22 20 19 18 20 21 19 22 22
4 4 3 6 3 4 1 7 4 8 9 4 3 17 20 19 17 17 16 12 10 9 11 13 12 13 13 13 13 16 16 16 18 17 16 18 18 24 21 20 20 20 19 20 19 19 20 22 21
4 3 2 2 2 7 13 16 8 6 12 13 20 21 20 17 16 19 14 11 9 8 9 10 10 12 12 11 12 14 18 19 16 20 19 16 22 21 20 21 22 19 20 21 22 21 20 18 19
2 3 2 4 10 12 8 11 5 17 7 17 27 19 16 13 11 16 12 11 9 8 7 6 10 13 11 9 11 11 20 18 15 20 21 22 21 22 21 21 21 21 20 18 20 21 21 21 19
5 4 3 5 5 7 5 7 5 6 9 19 20 21 16 14 15 15 12 11 9 8 8 7 10 11 10 14 13 15 16 14 13 18 21 20 16 17 16 17 19 18 18 18 19 17 18 21 20
2 4 6 5 7 9 14 5 11 16 18 18 19 17 16 14 14 12 12 9 7 8 6 6 8 9 10 13 12 15 13 14 16 19 20 23 18 14 16 17 17 18 19 19 16 16 16 16 17
5 6 8 6 5 5 17 2 7 6 17 20 19 16 14 16 12 12 10 8 6 7 6 6 5 9 13 11 13 14 15 17 19 20 22 21 20 17 16 15 16 17 21 21 18 15 14 14 15
6 6 6 6 8 6 15 5 2 2 16 18 17 15 14 14 13 12 10 9 8 5 6 6 5 7 10 10 12 15 15 19 18 18 22 20 20 20 18 15 13 17 20 20 18 18 17 13 13
5 2 0 6 9 8 3 4 4 1 17 15 16 14 15 14 14 11 9 8 7 7 6 7 9 8 9 10 12 15 18 19 19 20 22 18 20 20 18 15 13 18 21 18 13 9 4 5 5
3 4 5 6 11 9 2 4 6 2 12 13 15 15 14 12 9 10 10 10 9 8 7 6 7 7 8 13 15 16 17 18 18 21 21 21 18 20 20 16 16 20 17 16 9 6 5 4 5
5 6 5 5 3 4 5 4 7 6 9 11 9 11 14 13 12 12 13 11 8 7 7 7 7 6 11 14 13 14 12 14 18 18 19 20 19 18 21 18 18 19 13 10 7 5 8 4 4
5 6 9 5 3 6 5 7 14 7 8 9 10 12 12 13 11 12 12 11 10 8 8 8 8 6 7 5 5 3 4 3 7 16 18 18 18 17 18 16 16 17 9 6 8 3 6 7 4
8 8 6 5 5 5 4 3 1 4 4 7 8 12 13 10 13 14 13 13 13 11 9 8 9 7 6 5 3 3 3 3 7 13 14 15 16 14 15 15 12 13 8 7 5 5 3 3 5
7 7 3 6 4 6 9 1 8 5 3 6 7 9 11 11 14 16 16 14 12 11 11 10 10 8 6 7 5 5 7 6 3 3 5 10 14 14 15 13 13 11 9 4 4 4 5 3 4
5 7 5 6 3 5 5 6 9 14 11 11 11 11 13 12 14 18 16 14 15 12 9 10 9 8 7 11 8 11 5 5 3 3 5 9 13 13 13 13 11 10 8 6 3 7 3 3 3
9 9 6 5 4 1 6 3 4 13 15 17 17 16 15 13 18 19 18 17 14 12 11 10 8 8 8 9 12 9 6 4 4 4 6 6 9 12 12 12 11 9 7 6 7 6 5 3 3
9 3 3 3 1 4 8 5 5 9 21 17 16 17 19 14 18 18 18 15 13 11 9 8 9 10 10 8 8 10 10 8 7 5 4 4 3 7 11 11 11 9 7 6 6 6 7 4 4
4 6 2 4 3 8 4 2 6 18 16 21 24 21 20 15 15 17 17 15 15 15 13 9 9 12 9 8 8 8 11 12 12 11 7 6 4 3 6 10 9 7 7 6 7 7 6 4 3
8 9 6 7 4 5 3 4 4 5 17 11 19 20 18 15 15 18 19 18 17 17 14 13 12 10 8 8 8 7 10 8 7 10 8 6 5 5 12 12 10 9 7 6 6 6 4 6 4
6 4 9 4 2 1 4 4 4 6 4 10 13 15 17 16 17 19 18 17 17 16 16 14 13 10 10 9 7 7 8 9 8 8 9 6 9 10 13 12 10 9 8 7 7 5 3 4 4
17 6 1 2 7 11 4 4 5 1 7 9 13 16 16 16 15 16 17 17 15 16 15 14 15 14 11 9 9 8 9 7 8 8 8 8 11 12 12 10 9 9 8 7 6 4 4 4 2
3 4 2 4 5 5 3 6 7 8 10 14 15 17 18 17 18 18 17 16 16 16 16 16 15 15 12 11 9 9 8 8 7 8 6 8 12 13 10 10 9 8 8 7 5 4 4 4 3
11 17 15 5 4 3 5 5 5 8 8 14 17 16 16 17 19 18 18 17 16 17 16 18 15 14 14 13 12 11 11 9 8 7 6 12 7 13 12 11 8 8 8 8 5 4 4 5 3
Wind_Direction
309 318 104 53 59 65 351 58 139 133 82 83 99 96 113 58 85 120 79 92 105 109 99 97 98 95 92 90 88 84 82 85 83 79 73 67 70 69 64 59 59 57 54 52 48 45 45 41 40
322 326 32 98 83 63 275 37 165 120 143 158 84 99 42 69 74 118 103 118 114 110 105 102 101 103 102 98 93 91 84 84 84 80 75 69 64 63 63 56 49 51 52 49 45 41 37 32 28
289 87 67 63 70 176 170 124 120 130 176 203 100 21 75 124 121 118 111 115 106 101 103 103 106 106 105 101 95 92 88 81 81 81 79 73 66 62 58 55 51 48 45 42 40 38 34 32 28
2 5 30 75 312 284 114 147 121 114 52 59 118 56 67 128 99 122 126 116 108 102 97 101 101 97 97 100 102 100 97 92 85 80 78 78 74 67 64 57 52 51 49 46 42 35 28 24 23
34 60 41 356 288 328 13 145 122 106 95 114 110 81 63 59 108 121 127 123 114 107 98 91 94 99 99 105 103 101 98 96 92 90 84 75 76 75 66 60 57 54 51 47 43 41 37 29 23
26 91 32 333 302 37 20 132 115 101 118 107 88 96 77 113 113 116 109 110 108 111 109 107 101 98 101 97 91 93 100 97 96 96 94 87 78 77 68 59 55 50 45 40 40 34 37 33 27
116 77 176 301 298 47 126 163 118 126 121 113 129 105 113 113 109 109 106 100 104 105 103 95 92 91 84 81 84 92 91 92 89 84 86 87 80 73 60 48 49 46 42 43 48 53 47 52 39
110 85 5 316 293 23 62 103 114 112 69 103 139 144 138 132 120 115 111 106 103 100 96 96 86 80 81 77 81 87 96 92 93 89 72 72 71 66 58 53 51 51 50 46 47 50 51 50 48
99 59 356 320 4 90 50 100 29 47 109 30 10 128 126 133 133 122 118 112 100 98 109 96 91 93 81 88 89 88 80 80 91 89 87 84 80 72 63 52 45 42 43 35 34 40 48 48 50
82 90 243 239 150 112 120 103 118 105 101 94 97 109 126 134 138 124 118 110 100 87 80 88 85 84 92 88 89 83 85 86 91 91 89 85 74 67 59 51 44 38 38 32 31 33 37 33 41
331 160 235 42 122 115 123 106 112 118 122 146 140 139 132 135 125 117 104 98 98 97 84 79 89 100 103 103 90 82 85 86 78 80 78 70 64 60 57 53 46 41 36 34 35 38 37 38 34
350 7 14 326 172 108 108 118 89 141 152 142 136 139 138 123 122 118 113 105 105 93 98 93 106 107 100 98 91 88 80 78 69 71 73 71 64 61 55 50 46 43 36 35 32 31 35 37 31
215 321 346 90 81 88 89 93 109 116 132 134 127 124 119 111 108 107 103 100 109 104 104 102 112 113 111 102 99 86 78 77 72 66 69 76 71 61 56 52 49 42 40 36 29 27 32 30 27
297 305 302 127 148 143 109 31 104 99 129 126 125 124 121 120 119 115 120 131 134 134 125 130 132 135 123 114 108 96 87 78 70 69 74 81 78 68 61 57 50 45 43 39 36 34 35 27 30
270 297 313 270 166 133 104 43 61 85 143 135 132 130 125 125 124 137 148 154 149 144 146 145 139 140 119 113 112 100 92 85 78 71 75 77 72 69 70 70 56 49 47 44 36 34 34 30 17
322 7 17 286 143 199 69 182 244 287 147 148 140 137 135 144 145 152 144 135 141 139 152 157 144 142 135 130 116 103 98 91 85 79 73 80 71 71 74 71 59 57 48 42 38 27 25 18 19
317 246 217 295 188 149 105 143 224 218 148 154 152 147 136 136 149 150 142 147 160 161 163 149 141 144 131 120 112 107 104 96 90 82 76 74 77 74 77 73 64 61 51 39 33 28 42 22 9
235 311 266 240 221 75 120 149 162 178 131 143 133 133 142 149 164 163 151 155 158 151 144 138 135 140 129 116 110 102 93 95 91 84 81 74 73 75 77 71 64 60 50 33 27 33 25 22 12
277 283 261 264 225 114 203 153 181 175 138 153 138 139 146 154 162 157 155 153 143 145 146 150 140 152 134 131 126 110 119 103 81 90 89 86 81 77 79 76 69 66 60 42 28 24 39 27 357
278 263 264 290 164 83 112 150 239 208 173 166 152 156 153 155 149 151 152 155 154 158 159 162 158 169 163 150 144 126 126 83 106 107 94 94 91 86 80 82 73 69 67 46 36 42 33 37 17
245 231 226 219 314 52 113 127 197 218 168 171 180 170 156 174 156 160 165 166 157 166 172 177 173 176 178 158 111 79 88 97 89 71 91 102 102 97 91 92 86 77 75 69 61 53 52 47 13
238 230 259 276 153 213 192 228 216 209 203 196 193 183 175 185 168 167 171 170 170 175 181 180 183 176 188 173 154 159 154 158 173 147 134 128 121 115 110 106 97 89 82 69 71 73 71 71 31
233 245 240 254 196 333 203 137 261 167 211 210 203 188 192 187 176 176 175 175 177 171 186 187 179 183 176 179 167 163 149 149 133 117 139 130 136 133 126 115 108 97 87 79 90 85 78 74 84
233 222 313 8 136 226 235 166 193 180 216 211 197 190 196 191 182 182 178 172 175 174 184 190 175 183 180 183 174 171 161 153 148 149 148 151 144 140 134 128 120 113 96 81 98 102 88 89 88
174 85 305 309 276 244 258 256 231 209 218 200 193 189 192 187 178 184 174 177 175 181 186 190 181 185 188 190 182 181 166 163 168 167 164 158 163 173 158 140 135 127 118 101 106 115 103 91 92
217 168 165 212 230 267 284 248 274 258 226 203 189 187 188 189 182 186 182 180 181 184 184 186 188 186 180 180 183 169 160 165 171 171 168 169 169 167 162 152 147 144 133 112 99 122 120 112 99
239 157 197 184 236 122 246 293 304 81 118 165 176 182 195 194 187 187 186 184 183 185 185 182 181 188 179 181 160 157 150 150 161 157 162 160 161 163 160 158 155 155 146 121 111 125 121 114 112
219 209 160 355 218 252 250 237 224 162 176 172 173 193 198 194 188 188 188 187 186 187 184 182 182 184 183 172 162 161 156 154 151 148 153 156 166 159 159 162 158 158 153 141 129 121 132 115 106
171 194 167 169 155 196 252 255 199 195 184 178 193 195 192 188 188 190 192 191 187 186 184 188 187 182 179 170 160 152 154 153 151 158 160 161 152 162 166 169 165 165 160 153 137 137 136 113 90
234 212 195 144 228 154 156 271 224 207 183 187 198 195 194 189 189 192 191 187 187 189 189 191 191 187 181 168 160 161 157 157 156 157 153 163 167 171 170 172 171 165 163 163 160 147 120 111 85